Regional Weather Roundup
Issued by NWS Bismarck, ND

Home | Current Version | Previous Version | Text Only | Print | Product List | Glossary On
Versions: 1 2 3 4 5 6 7 8 9 10 11 12 13 14 15 16 17 18 19 20 21 22 23 24 25 26 27 28 29 30 31 32 33 34 35 36 37 38 39 40 41 42 43 44 45 46 47 48 49 50
000
ASUS43 KBIS 030810
RWRBIS

NWR BROADCAST TEXT
NATIONAL WEATHER SERVICE BISMARCK ND
300 AM CDT THU SEP 03 2015

NOTE: "FAIR" INDICATES FEW OR NO CLOUDS BELOW 12,000 FEET WITH NO
SIGNIFICANT WEATHER AND/OR OBSTRUCTIONS TO VISIBILITY.


CITY           SKY/WX    TMP DP  RH WIND       PRES   REMARKS
WILLISTON      MOCLDY    67  54  63 CALM      29.64S
MINOT          MOCLDY    71  67  87 SE9       29.67F
MINOT AFB      MOCLDY    66  66 100 SE9       29.66F
BISMARCK       PTCLDY    70  69  97 E7        29.70F
DICKINSON      CLEAR     68  59  73 SE10      29.68F
GARRISON         N/A     72  67  84 SE12      29.69F
HETTINGER ARPT CLEAR     66  59  78 E7        29.72F
JAMESTOWN      CLOUDY    73  71  93 SE10      29.75F FOG
CROSBY         FAIR      73  59  60 SW8G23    29.66R
HARVEY         FAIR      70  70 100 SE9       29.72F FOG
HAZEN          FAIR      70  66  88 NE5       29.69F
LINTON         FAIR      72  72 100 SE12      29.70F
OAKES            N/A     72  72 100 E10       29.76S FOG
RUGBY          FAIR      72  72 100 SE10      29.71F
STANLEY        FAIR      68  68 100 CALM      29.69F
$$

CITY           SKY/WX    TMP DP  RH WIND       PRES   REMARKS
GRAND FORKS    CLEAR     70  67  90 SE13      29.78F
GRAND FORKS AF CLEAR     69  67  93 S8        29.79S
DEVILS LAKE    CLOUDY    72  66  83 SE12      29.75S
FARGO          CLEAR     72  68  87 SE14G20   29.80S
CAVALIER       FAIR      72  66  83 S10       29.77F
GRAFTON        FAIR      70  70 100 S8        29.79S
GWINNER        CLOUDY    73  73 100 SE14      29.78F
LANGDON        FAIR      70  68  94 S10G18    29.78F
ROLLA          CLOUDY    68  68 100 S8        29.76F
WALHALLA       FAIR      68  68 100 MISG      29.77S
$$

CITY           SKY/WX    TMP DP  RH WIND       PRES   REMARKS
ABERDEEN       CLEAR     73  70  90 SE9       29.74F
MOBRIDGE       CLEAR     71  69  93 SE7       29.68F
BUFFALO          N/A     69  55  60 S8        29.66F
RAPID CITY     CLEAR     65  46  50 SE3       29.79S
GLASGOW        PTCLDY    71  37  28 NW15      29.72R
SIDNEY         PTCLDY    63  46  55 CALM        N/A
WOLF POINT     MOCLDY    77  44  30 NE18G31   29.64R
GLENDIVE       PTCLDY    70  46  43 NW8       29.64F
MILES CITY     PTCLDY    66  43  43 N5        29.64R
BAKER          CLEAR     68  52  56 SE12      29.68F
$$

CITY           SKY/WX    TMP DP  RH WIND       PRES   REMARKS
BILLINGS       PTCLDY    70  33  25 N13       29.80R
GREAT FALLS    CLOUDY    57  37  47 NE9       29.88R
REGINA         MOCLDY    66  48  52 N14G21    29.71S
ESTEVAN        MOCLDY    70  63  78 W8        29.67R
$$



USA.gov is the U.S. government's official web portal to all federal, state and local government web resources and services.